Time,TemperatureF,DewpointF,PressureIn,WindDirection,WindDirectionDegrees,WindSpeedMPH,WindSpeedGustMPH,Humidity,HourlyPrecipIn,Conditions,Clouds,dailyrainin,SoftwareType,DateUTC
2013-08-09 00:00:00,70.4,69.8,30.00,West,278,2.0,8.0,98,0.00,,,0.01,Wunderground v.1.15,2013-08-09 04:00:00,
2013-08-09 00:05:00,70.4,69.8,30.00,West,263,2.0,8.0,98,0.00,,,0.00,Wunderground v.1.15,2013-08-09 04:05:00,
2013-08-09 00:10:00,70.4,69.8,29.99,WSW,256,2.0,8.0,98,0.00,,,0.00,Wunderground v.1.15,2013-08-09 04:10:00,
2013-08-09 00:15:00,70.4,69.8,29.99,SSW,204,2.0,8.0,98,0.00,,,0.00,Wunderground v.1.15,2013-08-09 04:15:00,
2013-08-09 00:20:00,70.3,69.7,29.99,West,259,2.0,2.0,98,0.00,,,0.00,Wunderground v.1.15,2013-08-09 04:20:00,
2013-08-09 00:25:00,70.2,69.6,29.99,SW,219,2.0,8.0,98,0.00,,,0.00,Wunderground v.1.15,2013-08-09 04:25:00,
2013-08-09 00:30:00,70.2,69.6,29.99,West,281,1.0,8.0,98,0.00,,,0.00,Wunderground v.1.15,2013-08-09 04:30:00,
2013-08-09 00:35:00,70.2,69.9,29.99,West,261,1.0,8.0,99,0.00,,,0.00,Wunderground v.1.15,2013-08-09 04:35:00,
2013-08-09 00:40:00,70.3,70.0,29.98,West,261,1.0,1.0,99,0.00,,,0.00,Wunderground v.1.15,2013-08-09 04:40:00,
2013-08-09 00:45:00,70.3,70.0,29.99,West,260,1.0,2.0,99,0.00,,,0.00,Wunderground v.1.15,2013-08-09 04:45:00,
2013-08-09 00:50:00,70.3,70.0,29.98,West,273,1.0,8.0,99,0.00,,,0.00,Wunderground v.1.15,2013-08-09 04:50:00,
2013-08-09 01:00:00,70.3,70.0,29.98,SSW,205,2.0,8.0,99,0.00,,,0.00,Wunderground v.1.15,2013-08-09 05:00:00,
2013-08-09 01:05:00,70.3,70.0,29.98,SSW,197,3.0,8.0,99,0.00,,,0.00,Wunderground v.1.15,2013-08-09 05:05:00,
2013-08-09 01:10:00,70.2,69.9,29.98,WSW,252,3.0,3.0,99,0.00,,,0.00,Wunderground v.1.15,2013-08-09 05:10:00,
2013-08-09 01:15:00,70.2,69.9,29.98,SSW,207,3.0,8.0,99,0.00,,,0.00,Wunderground v.1.15,2013-08-09 05:15:00,
2013-08-09 01:20:00,70.1,69.8,29.98,SW,219,3.0,8.0,99,0.00,,,0.00,Wunderground v.1.15,2013-08-09 05:20:00,
2013-08-09 01:30:00,70.1,69.8,29.97,WSW,248,2.0,2.0,99,0.00,,,0.00,Wunderground v.1.15,2013-08-09 05:30:00,
2013-08-09 01:35:00,70.1,70.1,29.97,West,273,1.0,8.0,100,0.00,,,0.00,Wunderground v.1.15,2013-08-09 05:35:00,
2013-08-09 01:40:00,70.0,70.0,29.97,West,261,1.0,8.0,100,0.00,,,0.00,Wunderground v.1.15,2013-08-09 05:40:00,
2013-08-09 01:50:00,69.9,69.9,29.97,WSW,250,2.0,2.0,100,0.00,,,0.00,Wunderground v.1.15,2013-08-09 05:50:00,
2013-08-09 01:55:00,69.9,69.9,29.96,SW,219,2.0,8.0,100,0.00,,,0.00,Wunderground v.1.15,2013-08-09 05:55:00,
2013-08-09 02:00:00,69.9,69.9,29.97,WSW,255,1.0,8.0,100,0.00,,,0.00,Wunderground v.1.15,2013-08-09 06:00:00,
2013-08-09 02:05:00,69.8,69.8,29.96,SW,233,1.0,8.0,100,0.00,,,0.00,Wunderground v.1.15,2013-08-09 06:05:00,
2013-08-09 02:10:00,69.8,69.8,29.96,SW,214,1.0,8.0,100,0.00,,,0.00,Wunderground v.1.15,2013-08-09 06:10:00,
2013-08-09 02:15:00,69.8,69.8,29.96,SW,229,1.0,8.0,100,0.00,,,0.00,Wunderground v.1.15,2013-08-09 06:15:00,
2013-08-09 02:20:00,69.8,69.8,29.96,WSW,243,2.0,2.0,100,0.00,,,0.00,Wunderground v.1.15,2013-08-09 06:20:00,
2013-08-09 02:25:00,69.8,69.8,29.96,West,269,2.0,8.0,100,0.00,,,0.00,Wunderground v.1.15,2013-08-09 06:25:00,
2013-08-09 02:35:00,69.7,69.7,29.95,WSW,239,2.0,8.0,100,0.00,,,0.00,Wunderground v.1.15,2013-08-09 06:35:00,
2013-08-09 02:40:00,69.7,69.7,29.95,SW,231,3.0,3.0,100,0.00,,,0.00,Wunderground v.1.15,2013-08-09 06:40:00,
2013-08-09 02:45:00,69.7,69.7,29.95,SW,236,3.0,4.0,100,0.00,,,0.00,Wunderground v.1.15,2013-08-09 06:45:00,
2013-08-09 02:50:00,69.7,69.7,29.95,WSW,241,4.0,4.0,100,0.00,,,0.00,Wunderground v.1.15,2013-08-09 06:50:00,
2013-08-09 02:55:00,69.7,69.7,29.95,SW,221,3.0,8.0,100,0.00,,,0.00,Wunderground v.1.15,2013-08-09 06:55:00,
2013-08-09 03:00:00,69.6,69.6,29.95,WSW,250,2.0,8.0,100,0.00,,,0.00,Wunderground v.1.15,2013-08-09 07:00:00,
2013-08-09 03:05:00,69.6,69.6,29.95,SW,225,2.0,8.0,100,0.00,,,0.00,Wunderground v.1.15,2013-08-09 07:05:00,
2013-08-09 03:15:00,69.7,69.7,29.95,SW,226,2.0,8.0,100,0.00,,,0.00,Wunderground v.1.15,2013-08-09 07:15:00,
2013-08-09 03:20:00,69.7,69.7,29.95,WSW,238,2.0,8.0,100,0.00,,,0.00,Wunderground v.1.15,2013-08-09 07:20:00,
2013-08-09 03:30:00,69.7,69.7,29.95,West,263,1.0,8.0,100,0.00,,,0.00,Wunderground v.1.15,2013-08-09 07:30:00,
2013-08-09 03:35:00,69.7,69.7,29.95,SW,232,1.0,8.0,100,0.00,,,0.00,Wunderground v.1.15,2013-08-09 07:35:00,
2013-08-09 03:40:00,69.7,69.7,29.95,SW,220,1.0,8.0,100,0.00,,,0.00,Wunderground v.1.15,2013-08-09 07:40:00,
2013-08-09 03:45:00,69.7,69.7,29.94,SW,232,2.0,8.0,100,0.00,,,0.01,Wunderground v.1.15,2013-08-09 07:45:00,
2013-08-09 03:50:00,69.7,69.7,29.94,SW,235,1.0,8.0,100,0.11,,,0.02,Wunderground v.1.15,2013-08-09 07:50:00,
2013-08-09 03:55:00,69.7,69.7,29.94,South,185,1.0,8.0,100,0.08,,,0.02,Wunderground v.1.15,2013-08-09 07:55:00,
2013-08-09 04:00:00,69.7,69.7,29.93,SW,233,2.0,8.0,100,0.05,,,0.02,Wunderground v.1.15,2013-08-09 08:00:00,
2013-08-09 04:05:00,69.7,69.7,29.94,SW,222,2.0,8.0,100,0.00,,,0.02,Wunderground v.1.15,2013-08-09 08:05:00,
2013-08-09 04:15:00,69.7,69.7,29.94,WSW,238,1.0,8.0,100,0.00,,,0.02,Wunderground v.1.15,2013-08-09 08:15:00,
2013-08-09 04:20:00,69.7,69.7,29.94,SW,229,2.0,8.0,100,0.00,,,0.02,Wunderground v.1.15,2013-08-09 08:20:00,
2013-08-09 04:25:00,69.7,69.7,29.94,SW,227,3.0,8.0,100,0.00,,,0.02,Wunderground v.1.15,2013-08-09 08:25:00,
2013-08-09 04:35:00,69.7,69.7,29.93,SW,222,2.0,8.0,100,0.00,,,0.02,Wunderground v.1.15,2013-08-09 08:35:00,
2013-08-09 04:40:00,69.7,69.7,29.93,SW,229,2.0,8.0,100,0.00,,,0.02,Wunderground v.1.15,2013-08-09 08:40:00,
2013-08-09 04:45:00,69.6,69.6,29.93,SW,233,3.0,8.0,100,0.00,,,0.02,Wunderground v.1.15,2013-08-09 08:45:00,
2013-08-09 04:50:00,69.6,69.6,29.93,SSW,213,3.0,8.0,100,0.00,,,0.02,Wunderground v.1.15,2013-08-09 08:50:00,
2013-08-09 05:00:00,69.7,69.7,29.93,SW,236,2.0,8.0,100,0.00,,,0.02,Wunderground v.1.15,2013-08-09 09:00:00,
2013-08-09 05:10:00,69.7,69.7,29.93,WSW,238,3.0,8.0,100,0.00,,,0.03,Wunderground v.1.15,2013-08-09 09:10:00,
2013-08-09 05:15:00,69.8,69.8,29.93,SW,219,3.0,8.0,100,0.08,,,0.04,Wunderground v.1.15,2013-08-09 09:15:00,
2013-08-09 05:20:00,69.8,69.8,29.93,WSW,237,4.0,4.0,100,0.08,,,0.04,Wunderground v.1.15,2013-08-09 09:20:00,
2013-08-09 05:25:00,69.8,69.8,29.93,West,277,3.0,8.0,100,0.07,,,0.05,Wunderground v.1.15,2013-08-09 09:25:00,
2013-08-09 05:30:00,69.8,69.8,29.92,SW,234,2.0,2.0,100,0.09,,,0.06,Wunderground v.1.15,2013-08-09 09:30:00,
2013-08-09 05:40:00,69.9,69.9,29.92,SW,214,3.0,8.0,100,0.14,,,0.08,Wunderground v.1.15,2013-08-09 09:40:00,
2013-08-09 05:50:00,69.9,69.9,29.92,SW,219,3.0,8.0,100,0.07,,,0.09,Wunderground v.1.15,2013-08-09 09:50:00,
2013-08-09 05:55:00,70.0,70.0,29.92,WSW,255,3.0,8.0,100,0.14,,,0.10,Wunderground v.1.15,2013-08-09 09:55:00,
2013-08-09 06:00:00,70.1,70.1,29.93,SSW,211,3.0,3.0,100,0.08,,,0.11,Wunderground v.1.15,2013-08-09 10:00:00,
2013-08-09 06:05:00,70.1,70.1,29.92,SSW,200,3.0,4.0,100,0.08,,,0.11,Wunderground v.1.15,2013-08-09 10:05:00,
2013-08-09 06:10:00,70.1,70.1,29.92,WSW,242,3.0,8.0,100,0.06,,,0.12,Wunderground v.1.15,2013-08-09 10:10:00,
2013-08-09 06:20:00,70.2,70.2,29.92,WNW,282,3.0,8.0,100,0.05,,,0.12,Wunderground v.1.15,2013-08-09 10:20:00,
2013-08-09 06:25:00,70.2,70.2,29.92,West,259,4.0,8.0,100,0.04,,,0.12,Wunderground v.1.15,2013-08-09 10:25:00,
2013-08-09 06:35:00,70.3,70.3,29.92,SW,226,3.0,8.0,100,0.00,,,0.12,Wunderground v.1.15,2013-08-09 10:35:00,
2013-08-09 06:40:00,70.3,70.3,29.92,SW,229,4.0,8.0,100,0.00,,,0.12,Wunderground v.1.15,2013-08-09 10:40:00,
2013-08-09 06:45:00,70.4,70.4,29.91,SSW,201,4.0,8.0,100,0.00,,,0.12,Wunderground v.1.15,2013-08-09 10:45:00,
2013-08-09 06:50:00,70.4,70.4,29.91,SW,225,3.0,3.0,100,0.00,,,0.13,Wunderground v.1.15,2013-08-09 10:50:00,
2013-08-09 06:55:00,70.4,70.4,29.91,West,261,3.0,8.0,100,0.00,,,0.13,Wunderground v.1.15,2013-08-09 10:55:00,
2013-08-09 07:00:00,70.5,70.5,29.92,WNW,286,3.0,3.0,100,0.00,,,0.13,Wunderground v.1.15,2013-08-09 11:00:00,
2013-08-09 07:05:00,70.6,70.6,29.92,SSW,212,3.0,4.0,100,0.00,,,0.14,Wunderground v.1.15,2013-08-09 11:05:00,
2013-08-09 07:10:00,70.6,70.6,29.92,SW,219,4.0,4.0,100,0.00,,,0.14,Wunderground v.1.15,2013-08-09 11:10:00,
2013-08-09 07:20:00,70.7,70.7,29.91,SW,227,3.0,3.0,100,0.29,,,0.18,Wunderground v.1.15,2013-08-09 11:20:00,
2013-08-09 07:25:00,70.7,70.7,29.91,WSW,246,3.0,8.0,100,0.13,,,0.19,Wunderground v.1.15,2013-08-09 11:25:00,
2013-08-09 07:30:00,70.7,70.7,29.91,SSW,213,2.0,2.0,100,0.91,,,0.25,Wunderground v.1.15,2013-08-09 11:30:00,
2013-08-09 07:35:00,70.7,70.7,29.91,SSW,200,3.0,3.0,100,0.76,,,0.30,Wunderground v.1.15,2013-08-09 11:35:00,
2013-08-09 07:40:00,70.7,70.7,29.91,SW,234,2.0,8.0,100,0.41,,,0.37,Wunderground v.1.15,2013-08-09 11:40:00,
2013-08-09 07:45:00,70.6,70.6,29.91,SW,232,3.0,8.0,100,0.42,,,0.41,Wunderground v.1.15,2013-08-09 11:45:00,
2013-08-09 07:55:00,70.5,70.5,29.90,SSW,200,3.0,8.0,100,0.22,,,0.46,Wunderground v.1.15,2013-08-09 11:55:00,
2013-08-09 08:00:00,70.3,70.3,29.91,WSW,244,3.0,3.0,100,1.00,,,0.50,Wunderground v.1.15,2013-08-09 12:00:00,
2013-08-09 08:05:00,70.3,70.3,29.90,West,273,3.0,8.0,100,0.41,,,0.54,Wunderground v.1.15,2013-08-09 12:05:00,
2013-08-09 08:10:00,70.3,70.3,29.90,SW,227,2.0,8.0,100,0.17,,,0.55,Wunderground v.1.15,2013-08-09 12:10:00,
2013-08-09 08:15:00,70.4,70.4,29.90,SSW,209,3.0,8.0,100,0.16,,,0.56,Wunderground v.1.15,2013-08-09 12:15:00,
2013-08-09 08:20:00,70.5,70.5,29.90,WSW,248,3.0,3.0,100,0.17,,,0.58,Wunderground v.1.15,2013-08-09 12:20:00,
2013-08-09 08:25:00,70.5,70.5,29.89,SW,234,2.0,8.0,100,0.22,,,0.59,Wunderground v.1.15,2013-08-09 12:25:00,
2013-08-09 08:30:00,70.6,70.6,29.89,SSW,207,3.0,8.0,100,0.12,,,0.60,Wunderground v.1.15,2013-08-09 12:30:00,
2013-08-09 08:35:00,70.7,70.7,29.88,SSW,195,4.0,8.0,100,0.21,,,0.62,Wunderground v.1.15,2013-08-09 12:35:00,
2013-08-09 08:45:00,70.7,70.7,29.88,WSW,238,4.0,8.0,100,0.18,,,0.64,Wunderground v.1.15,2013-08-09 12:45:00,
2013-08-09 08:50:00,70.7,70.7,29.88,SW,225,3.0,3.0,100,0.09,,,0.65,Wunderground v.1.15,2013-08-09 12:50:00,
2013-08-09 08:55:00,70.6,70.6,29.88,West,270,3.0,8.0,100,0.16,,,0.66,Wunderground v.1.15,2013-08-09 12:55:00,
2013-08-09 09:00:00,70.6,70.6,29.88,SSW,200,3.0,8.0,100,0.24,,,0.68,Wunderground v.1.15,2013-08-09 13:00:00,
2013-08-09 09:10:00,70.5,70.5,29.87,SSW,211,2.0,2.0,100,0.15,,,0.70,Wunderground v.1.15,2013-08-09 13:10:00,
2013-08-09 09:15:00,70.5,70.5,29.87,WSW,245,1.0,8.0,100,0.14,,,0.71,Wunderground v.1.15,2013-08-09 13:15:00,
2013-08-09 09:20:00,70.5,70.5,29.86,SW,215,1.0,8.0,100,0.21,,,0.73,Wunderground v.1.15,2013-08-09 13:20:00,
2013-08-09 09:25:00,70.5,70.5,29.86,South,184,1.0,8.0,100,0.17,,,0.75,Wunderground v.1.15,2013-08-09 13:25:00,
2013-08-09 09:30:00,70.5,70.5,29.84,South,170,1.0,8.0,100,0.33,,,0.77,Wunderground v.1.15,2013-08-09 13:30:00,
2013-08-09 09:40:00,70.5,70.5,29.85,SSW,205,2.0,2.0,100,0.23,,,0.82,Wunderground v.1.15,2013-08-09 13:40:00,
2013-08-09 09:45:00,70.4,70.4,29.84,SW,225,3.0,3.0,100,0.53,,,0.84,Wunderground v.1.15,2013-08-09 13:45:00,
2013-08-09 09:50:00,70.5,70.5,29.84,WSW,252,2.0,8.0,100,1.22,,,0.89,Wunderground v.1.15,2013-08-09 13:50:00,
2013-08-09 09:55:00,70.5,70.5,29.85,WSW,252,2.0,8.0,100,0.72,,,0.98,Wunderground v.1.15,2013-08-09 13:55:00,
2013-08-09 10:00:00,70.6,70.6,29.84,WSW,239,2.0,8.0,100,0.39,,,1.02,Wunderground v.1.15,2013-08-09 14:00:00,
2013-08-09 10:05:00,70.6,70.6,29.84,South,188,2.0,8.0,100,0.92,,,1.06,Wunderground v.1.15,2013-08-09 14:05:00,
2013-08-09 10:10:00,70.6,70.6,29.83,SW,221,2.0,8.0,100,1.32,,,1.12,Wunderground v.1.15,2013-08-09 14:10:00,
2013-08-09 10:20:00,70.6,70.6,29.84,SW,225,3.0,8.0,100,1.27,,,1.32,Wunderground v.1.15,2013-08-09 14:20:00,
2013-08-09 10:25:00,70.6,70.6,29.83,SSW,204,2.0,8.0,100,1.12,,,1.42,Wunderground v.1.15,2013-08-09 14:25:00,
2013-08-09 10:30:00,70.6,70.6,29.83,SSW,207,1.0,1.0,100,2.44,,,1.56,Wunderground v.1.15,2013-08-09 14:30:00,
2013-08-09 10:35:00,70.6,70.6,29.83,SSW,212,0.0,4.0,100,2.91,,,1.70,Wunderground v.1.15,2013-08-09 14:35:00,
2013-08-09 10:40:00,70.7,70.7,29.83,West,267,1.0,8.0,100,1.57,,,1.82,Wunderground v.1.15,2013-08-09 14:40:00,
2013-08-09 10:45:00,70.7,70.7,29.83,SW,231,2.0,8.0,100,1.51,,,1.96,Wunderground v.1.15,2013-08-09 14:45:00,
2013-08-09 10:50:00,70.7,70.7,29.83,SSW,198,1.0,1.0,100,1.45,,,2.04,Wunderground v.1.15,2013-08-09 14:50:00,
2013-08-09 10:55:00,70.7,70.7,29.83,SSW,198,0.0,8.0,100,0.45,,,2.10,Wunderground v.1.15,2013-08-09 14:55:00,
2013-08-09 11:05:00,70.8,70.8,29.83,SSW,206,2.0,8.0,100,0.35,,,2.16,Wunderground v.1.15,2013-08-09 15:05:00,
2013-08-09 11:10:00,71.0,71.0,29.82,SW,221,3.0,8.0,100,0.17,,,2.17,Wunderground v.1.15,2013-08-09 15:10:00,
2013-08-09 11:15:00,71.0,71.0,29.82,SSW,206,3.0,9.0,100,0.17,,,2.18,Wunderground v.1.15,2013-08-09 15:15:00,
2013-08-09 11:20:00,71.1,71.1,29.81,SW,229,3.0,3.0,100,0.22,,,2.21,Wunderground v.1.15,2013-08-09 15:20:00,
2013-08-09 11:25:00,71.1,71.1,29.81,WNW,288,2.0,8.0,100,0.54,,,2.24,Wunderground v.1.15,2013-08-09 15:25:00,
2013-08-09 11:30:00,71.2,71.2,29.80,SW,228,2.0,8.0,100,0.77,,,2.28,Wunderground v.1.15,2013-08-09 15:30:00,
2013-08-09 11:35:00,71.2,71.2,29.80,WSW,246,2.0,8.0,100,0.47,,,2.34,Wunderground v.1.15,2013-08-09 15:35:00,
2013-08-09 11:45:00,71.2,71.2,29.78,ESE,122,1.0,8.0,100,2.58,,,2.61,Wunderground v.1.15,2013-08-09 15:45:00,
2013-08-09 11:50:00,71.2,71.2,29.76,SSW,194,2.0,8.0,100,1.57,,,2.75,Wunderground v.1.15,2013-08-09 15:50:00,
2013-08-09 11:55:00,71.3,71.3,29.79,SSW,202,4.0,8.0,100,0.64,,,2.83,Wunderground v.1.15,2013-08-09 15:55:00,
2013-08-09 12:00:00,71.3,71.3,29.80,NNW,340,3.0,3.0,100,2.19,,,3.00,Wunderground v.1.15,2013-08-09 16:00:00,
2013-08-09 12:05:00,71.4,71.4,29.80,SSW,213,1.0,8.0,100,0.72,,,3.16,Wunderground v.1.15,2013-08-09 16:05:00,
2013-08-09 12:10:00,71.5,71.5,29.79,WSW,257,1.0,1.0,100,1.79,,,3.28,Wunderground v.1.15,2013-08-09 16:10:00,
2013-08-09 12:15:00,71.5,71.5,29.79,WSW,257,0.0,8.0,100,0.22,,,3.31,Wunderground v.1.15,2013-08-09 16:15:00,
2013-08-09 12:20:00,71.6,71.6,29.78,SSW,196,0.0,8.0,100,0.12,,,3.32,Wunderground v.1.15,2013-08-09 16:20:00,
2013-08-09 12:30:00,71.5,71.5,29.79,NE,38,0.0,8.0,100,0.07,,,3.33,Wunderground v.1.15,2013-08-09 16:30:00,
2013-08-09 12:40:00,71.5,71.5,29.79,East,101,0.0,8.0,100,0.08,,,3.35,Wunderground v.1.15,2013-08-09 16:40:00,
2013-08-09 12:45:00,71.5,71.5,29.78,ESE,109,0.0,8.0,100,0.37,,,3.39,Wunderground v.1.15,2013-08-09 16:45:00,
2013-08-09 12:50:00,71.6,71.6,29.77,SW,235,1.0,1.0,100,0.17,,,3.40,Wunderground v.1.15,2013-08-09 16:50:00,
2013-08-09 12:55:00,71.7,71.7,29.77,West,266,1.0,8.0,100,0.26,,,3.43,Wunderground v.1.15,2013-08-09 16:55:00,
2013-08-09 13:00:00,71.7,71.7,29.77,West,259,1.0,1.0,100,0.21,,,3.44,Wunderground v.1.15,2013-08-09 17:00:00,
2013-08-09 13:05:00,71.8,71.8,29.77,SW,221,1.0,4.0,100,0.08,,,3.44,Wunderground v.1.15,2013-08-09 17:05:00,
2013-08-09 13:10:00,71.9,71.9,29.77,SW,226,2.0,2.0,100,0.05,,,3.44,Wunderground v.1.15,2013-08-09 17:10:00,
2013-08-09 13:15:00,72.0,72.0,29.77,West,265,2.0,8.0,100,0.00,,,3.44,Wunderground v.1.15,2013-08-09 17:15:00,
2013-08-09 13:20:00,72.1,72.1,29.77,WSW,252,1.0,1.0,100,0.00,,,3.44,Wunderground v.1.15,2013-08-09 17:20:00,
2013-08-09 13:30:00,72.2,72.2,29.77,WSW,250,1.0,1.0,100,0.00,,,3.44,Wunderground v.1.15,2013-08-09 17:30:00,
2013-08-09 13:35:00,72.4,72.4,29.77,SW,215,1.0,2.0,100,0.00,,,3.45,Wunderground v.1.15,2013-08-09 17:35:00,
2013-08-09 13:40:00,72.6,72.6,29.77,West,272,2.0,8.0,100,0.00,,,3.45,Wunderground v.1.15,2013-08-09 17:40:00,
2013-08-09 13:45:00,72.6,72.6,29.77,SSW,200,2.0,8.0,100,0.00,,,3.45,Wunderground v.1.15,2013-08-09 17:45:00,
2013-08-09 13:50:00,72.7,72.7,29.77,WSW,253,1.0,1.0,100,0.00,,,3.45,Wunderground v.1.15,2013-08-09 17:50:00,
2013-08-09 13:55:00,72.9,72.9,29.77,SSW,213,1.0,8.0,100,0.00,,,3.45,Wunderground v.1.15,2013-08-09 17:55:00,
2013-08-09 14:00:00,72.9,72.9,29.77,WSW,257,1.0,1.0,100,0.00,,,3.45,Wunderground v.1.15,2013-08-09 18:00:00,
2013-08-09 14:10:00,72.9,72.9,29.77,SSW,203,1.0,8.0,100,0.00,,,3.45,Wunderground v.1.15,2013-08-09 18:10:00,
2013-08-09 14:15:00,72.9,72.9,29.77,SW,219,1.0,8.0,100,0.00,,,3.45,Wunderground v.1.15,2013-08-09 18:15:00,
2013-08-09 14:20:00,73.1,73.1,29.77,SW,226,1.0,8.0,100,0.00,,,3.45,Wunderground v.1.15,2013-08-09 18:20:00,
2013-08-09 14:25:00,73.3,73.3,29.77,West,263,1.0,8.0,100,0.00,,,3.45,Wunderground v.1.15,2013-08-09 18:25:00,
2013-08-09 14:30:00,73.7,73.7,29.77,SW,229,1.0,1.0,100,0.00,,,3.45,Wunderground v.1.15,2013-08-09 18:30:00,
2013-08-09 14:35:00,73.8,73.8,29.77,WSW,253,1.0,4.0,100,0.00,,,3.45,Wunderground v.1.15,2013-08-09 18:35:00,
2013-08-09 14:40:00,73.9,73.9,29.77,WSW,248,1.0,8.0,100,0.00,,,3.45,Wunderground v.1.15,2013-08-09 18:40:00,
2013-08-09 14:50:00,74.5,74.5,29.77,WSW,240,1.0,8.0,100,0.00,,,3.45,Wunderground v.1.15,2013-08-09 18:50:00,
2013-08-09 15:00:00,75.0,75.0,29.77,SW,217,0.0,8.0,100,0.00,,,3.45,Wunderground v.1.15,2013-08-09 19:00:00,
2013-08-09 15:05:00,75.2,74.6,29.78,WSW,240,0.0,8.0,98,0.00,,,3.45,Wunderground v.1.15,2013-08-09 19:05:00,
2013-08-09 15:10:00,75.5,74.9,29.78,SSW,198,1.0,1.0,98,0.00,,,3.45,Wunderground v.1.15,2013-08-09 19:10:00,
2013-08-09 15:15:00,75.3,74.4,29.78,North,5,1.0,8.0,97,0.00,,,3.45,Wunderground v.1.15,2013-08-09 19:15:00,
2013-08-09 15:20:00,75.1,74.2,29.78,SSW,209,0.0,8.0,97,0.00,,,3.45,Wunderground v.1.15,2013-08-09 19:20:00,
2013-08-09 15:25:00,74.9,74.0,29.78,West,267,0.0,8.0,97,0.00,,,3.45,Wunderground v.1.15,2013-08-09 19:25:00,
2013-08-09 15:30:00,74.8,73.9,29.77,WSW,252,1.0,8.0,97,0.00,,,3.45,Wunderground v.1.15,2013-08-09 19:30:00,
2013-08-09 15:35:00,74.8,74.2,29.77,WSW,246,1.0,8.0,98,0.00,,,3.45,Wunderground v.1.15,2013-08-09 19:35:00,
2013-08-09 15:45:00,74.6,74.0,29.77,WSW,248,0.0,8.0,98,0.00,,,3.45,Wunderground v.1.15,2013-08-09 19:45:00,
2013-08-09 15:50:00,74.6,74.3,29.77,WSW,242,0.0,8.0,99,0.00,,,3.45,Wunderground v.1.15,2013-08-09 19:50:00,
2013-08-09 15:55:00,74.7,74.1,29.78,SW,217,1.0,8.0,98,0.00,,,3.45,Wunderground v.1.15,2013-08-09 19:55:00,
2013-08-09 16:00:00,74.8,74.2,29.77,WSW,242,1.0,8.0,98,0.00,,,3.45,Wunderground v.1.15,2013-08-09 20:00:00,
2013-08-09 16:05:00,74.9,74.3,29.77,SSW,207,1.0,8.0,98,0.00,,,3.45,Wunderground v.1.15,2013-08-09 20:05:00,
2013-08-09 16:10:00,75.1,74.5,29.77,SSW,211,1.0,1.0,98,0.00,,,3.45,Wunderground v.1.15,2013-08-09 20:10:00,
2013-08-09 16:15:00,75.3,74.7,29.77,WSW,238,1.0,2.0,98,0.00,,,3.45,Wunderground v.1.15,2013-08-09 20:15:00,
2013-08-09 16:25:00,75.5,74.6,29.78,WSW,237,0.0,8.0,97,0.00,,,3.45,Wunderground v.1.15,2013-08-09 20:25:00,
2013-08-09 16:30:00,75.5,74.3,29.78,WSW,250,1.0,1.0,96,0.00,,,3.45,Wunderground v.1.15,2013-08-09 20:30:00,
2013-08-09 16:35:00,75.5,74.6,29.78,WSW,250,1.0,8.0,97,0.00,,,3.45,Wunderground v.1.15,2013-08-09 20:35:00,
2013-08-09 16:40:00,75.4,74.5,29.78,SSW,196,0.0,8.0,97,0.00,,,3.45,Wunderground v.1.15,2013-08-09 20:40:00,
2013-08-09 16:45:00,75.3,74.4,29.78,SSW,196,0.0,8.0,97,0.00,,,3.45,Wunderground v.1.15,2013-08-09 20:45:00,
2013-08-09 16:50:00,75.3,74.4,29.78,SSW,192,0.0,8.0,97,0.00,,,3.45,Wunderground v.1.15,2013-08-09 20:50:00,
2013-08-09 16:55:00,75.1,74.2,29.78,SSW,192,0.0,8.0,97,0.00,,,3.45,Wunderground v.1.15,2013-08-09 20:55:00,
2013-08-09 17:05:00,74.9,74.3,29.77,SSW,200,0.0,8.0,98,0.00,,,3.45,Wunderground v.1.15,2013-08-09 21:05:00,
2013-08-09 17:15:00,74.7,74.1,29.78,SE,134,0.0,8.0,98,0.00,,,3.45,Wunderground v.1.15,2013-08-09 21:15:00,
2013-08-09 17:20:00,74.5,74.2,29.79,SE,134,0.0,8.0,99,0.00,,,3.45,Wunderground v.1.15,2013-08-09 21:20:00,
2013-08-09 17:25:00,74.4,74.1,29.79,SE,134,0.0,8.0,99,0.00,,,3.46,Wunderground v.1.15,2013-08-09 21:25:00,
2013-08-09 17:35:00,73.6,73.0,29.79,NNE,24,0.0,8.0,98,0.58,,,3.62,Wunderground v.1.15,2013-08-09 21:35:00,
2013-08-09 17:40:00,73.0,72.1,29.79,NNE,12,0.0,8.0,97,0.29,,,3.66,Wunderground v.1.15,2013-08-09 21:40:00,
2013-08-09 17:45:00,72.5,71.6,29.79,NNE,12,0.0,8.0,97,0.24,,,3.71,Wunderground v.1.15,2013-08-09 21:45:00,
2013-08-09 17:50:00,72.1,71.2,29.79,NNE,12,0.0,8.0,97,0.11,,,3.71,Wunderground v.1.15,2013-08-09 21:50:00,
2013-08-09 17:55:00,71.9,71.3,29.79,NNE,12,0.0,8.0,98,0.06,,,3.71,Wunderground v.1.15,2013-08-09 21:55:00,
2013-08-09 18:00:00,71.9,71.6,29.78,NNE,12,0.0,8.0,99,0.05,,,3.72,Wunderground v.1.15,2013-08-09 22:00:00,
2013-08-09 18:05:00,71.9,71.6,29.78,NNE,12,0.0,8.0,99,0.05,,,3.72,Wunderground v.1.15,2013-08-09 22:05:00,
2013-08-09 18:15:00,71.5,71.2,29.79,SW,223,1.0,8.0,99,0.00,,,3.72,Wunderground v.1.15,2013-08-09 22:15:00,
2013-08-09 18:25:00,71.0,70.7,29.79,WSW,252,0.0,8.0,99,0.00,,,3.72,Wunderground v.1.15,2013-08-09 22:25:00,
2013-08-09 18:30:00,71.0,71.0,29.79,WSW,252,0.0,8.0,100,0.00,,,3.72,Wunderground v.1.15,2013-08-09 22:30:00,
2013-08-09 18:35:00,70.9,70.9,29.79,WSW,252,0.0,8.0,100,0.00,,,3.72,Wunderground v.1.15,2013-08-09 22:35:00,
2013-08-09 18:40:00,70.9,70.9,29.79,WSW,252,0.0,8.0,100,0.00,,,3.72,Wunderground v.1.15,2013-08-09 22:40:00,
2013-08-09 18:45:00,70.9,70.9,29.79,WSW,252,0.0,8.0,100,0.00,,,3.72,Wunderground v.1.15,2013-08-09 22:45:00,
2013-08-09 18:50:00,71.0,71.0,29.79,WSW,252,0.0,8.0,100,0.00,,,3.72,Wunderground v.1.15,2013-08-09 22:50:00,
2013-08-09 18:55:00,70.9,70.9,29.79,WSW,252,0.0,8.0,100,0.00,,,3.72,Wunderground v.1.15,2013-08-09 22:55:00,
2013-08-09 19:00:00,70.9,70.9,29.79,WSW,252,0.0,8.0,100,0.00,,,3.72,Wunderground v.1.15,2013-08-09 23:00:00,
2013-08-09 19:10:00,70.8,70.8,29.79,WSW,252,0.0,8.0,100,0.00,,,3.73,Wunderground v.1.15,2013-08-09 23:10:00,
2013-08-09 19:15:00,70.8,70.8,29.79,WSW,252,0.0,8.0,100,0.00,,,3.73,Wunderground v.1.15,2013-08-09 23:15:00,
2013-08-09 19:20:00,70.7,70.7,29.79,WSW,252,0.0,8.0,100,0.00,,,3.73,Wunderground v.1.15,2013-08-09 23:20:00,
2013-08-09 19:30:00,70.3,70.3,29.79,WSW,237,0.0,8.0,100,0.00,,,3.73,Wunderground v.1.15,2013-08-09 23:30:00,
2013-08-09 19:35:00,70.3,70.3,29.79,WSW,237,0.0,8.0,100,0.00,,,3.73,Wunderground v.1.15,2013-08-09 23:35:00,
2013-08-09 19:40:00,70.2,70.2,29.79,WSW,237,0.0,8.0,100,0.00,,,3.73,Wunderground v.1.15,2013-08-09 23:40:00,
2013-08-09 19:50:00,70.2,70.2,29.80,WSW,237,0.0,8.0,100,0.00,,,3.73,Wunderground v.1.15,2013-08-09 23:50:00,
2013-08-09 19:55:00,70.1,70.1,29.80,WSW,237,0.0,8.0,100,0.00,,,3.73,Wunderground v.1.15,2013-08-09 23:55:00,
2013-08-09 20:05:00,70.0,70.0,29.79,WSW,237,0.0,8.0,100,0.00,,,3.73,Wunderground v.1.15,2013-08-10 00:05:00,
2013-08-09 20:10:00,69.9,69.9,29.79,SW,236,0.0,8.0,100,0.00,,,3.73,Wunderground v.1.15,2013-08-10 00:10:00,
2013-08-09 20:15:00,69.9,69.9,29.79,SW,236,0.0,8.0,100,0.00,,,3.73,Wunderground v.1.15,2013-08-10 00:15:00,
2013-08-09 20:20:00,69.9,69.9,29.79,SW,236,0.0,8.0,100,0.00,,,3.73,Wunderground v.1.15,2013-08-10 00:20:00,
2013-08-09 20:30:00,69.9,69.9,29.80,SW,236,0.0,8.0,100,0.00,,,3.73,Wunderground v.1.15,2013-08-10 00:30:00,
2013-08-09 20:35:00,69.8,69.8,29.80,WSW,237,0.0,8.0,100,0.00,,,3.73,Wunderground v.1.15,2013-08-10 00:35:00,
2013-08-09 20:45:00,69.8,69.8,29.80,WSW,237,0.0,8.0,100,0.00,,,3.73,Wunderground v.1.15,2013-08-10 00:45:00,
2013-08-09 20:50:00,69.7,69.7,29.80,WSW,237,0.0,8.0,100,0.00,,,3.73,Wunderground v.1.15,2013-08-10 00:50:00,
2013-08-09 20:55:00,69.7,69.7,29.80,WSW,237,0.0,8.0,100,0.00,,,3.73,Wunderground v.1.15,2013-08-10 00:55:00,
2013-08-09 21:00:00,69.6,69.6,29.80,WSW,237,0.0,8.0,100,0.00,,,3.73,Wunderground v.1.15,2013-08-10 01:00:00,
2013-08-09 21:05:00,69.5,69.5,29.80,SW,236,0.0,8.0,100,0.00,,,3.73,Wunderground v.1.15,2013-08-10 01:05:00,
2013-08-09 21:10:00,69.5,69.5,29.80,WSW,237,0.0,8.0,100,0.00,,,3.73,Wunderground v.1.15,2013-08-10 01:10:00,
2013-08-09 21:15:00,69.5,69.5,29.80,SW,236,0.0,8.0,100,0.00,,,3.73,Wunderground v.1.15,2013-08-10 01:15:00,
2013-08-09 21:25:00,69.5,69.5,29.80,WSW,237,0.0,8.0,100,0.00,,,3.73,Wunderground v.1.15,2013-08-10 01:25:00,
2013-08-09 21:30:00,69.5,69.5,29.80,WSW,237,0.0,8.0,100,0.00,,,3.73,Wunderground v.1.15,2013-08-10 01:30:00,
2013-08-09 21:35:00,69.5,69.5,29.80,SW,236,0.0,8.0,100,0.00,,,3.73,Wunderground v.1.15,2013-08-10 01:35:00,
2013-08-09 21:40:00,69.5,69.5,29.81,WSW,237,0.0,8.0,100,0.00,,,3.73,Wunderground v.1.15,2013-08-10 01:40:00,
2013-08-09 21:45:00,69.5,69.5,29.81,WSW,237,0.0,8.0,100,0.00,,,3.73,Wunderground v.1.15,2013-08-10 01:45:00,
2013-08-09 21:50:00,69.5,69.5,29.80,WSW,237,0.0,8.0,100,0.00,,,3.73,Wunderground v.1.15,2013-08-10 01:50:00,
2013-08-09 21:55:00,69.5,69.5,29.81,WSW,237,0.0,8.0,100,0.00,,,3.73,Wunderground v.1.15,2013-08-10 01:55:00,
2013-08-09 22:05:00,69.6,69.6,29.81,WSW,237,0.0,8.0,100,0.00,,,3.73,Wunderground v.1.15,2013-08-10 02:05:00,
2013-08-09 22:10:00,69.6,69.6,29.81,WSW,237,0.0,8.0,100,0.00,,,3.73,Wunderground v.1.15,2013-08-10 02:10:00,
2013-08-09 22:15:00,69.6,69.6,29.81,WSW,237,0.0,8.0,100,0.00,,,3.73,Wunderground v.1.15,2013-08-10 02:15:00,
2013-08-09 22:20:00,69.7,69.7,29.81,WSW,237,0.0,8.0,100,0.00,,,3.73,Wunderground v.1.15,2013-08-10 02:20:00,
2013-08-09 22:25:00,69.9,69.9,29.81,WSW,237,0.0,8.0,100,0.00,,,3.73,Wunderground v.1.15,2013-08-10 02:25:00,
2013-08-09 22:30:00,70.0,70.0,29.81,WSW,237,0.0,8.0,100,0.00,,,3.73,Wunderground v.1.15,2013-08-10 02:30:00,
2013-08-09 22:35:00,70.1,70.1,29.82,WSW,237,0.0,8.0,100,0.00,,,3.73,Wunderground v.1.15,2013-08-10 02:35:00,
2013-08-09 22:40:00,70.1,70.1,29.82,SW,236,0.0,8.0,100,0.00,,,3.73,Wunderground v.1.15,2013-08-10 02:40:00,
2013-08-09 22:50:00,70.2,70.2,29.81,WSW,237,0.0,8.0,100,0.00,,,3.73,Wunderground v.1.15,2013-08-10 02:50:00,
2013-08-09 23:00:00,70.1,70.1,29.82,WSW,237,0.0,8.0,100,0.00,,,3.73,Wunderground v.1.15,2013-08-10 03:00:00,
2013-08-09 23:05:00,70.1,70.1,29.82,WSW,237,0.0,8.0,100,0.00,,,3.73,Wunderground v.1.15,2013-08-10 03:05:00,
2013-08-09 23:10:00,70.0,70.0,29.82,WSW,237,0.0,8.0,100,0.00,,,3.73,Wunderground v.1.15,2013-08-10 03:10:00,
2013-08-09 23:15:00,70.0,70.0,29.82,WSW,237,0.0,8.0,100,0.00,,,3.73,Wunderground v.1.15,2013-08-10 03:15:00,
2013-08-09 23:20:00,70.0,70.0,29.82,WSW,237,0.0,8.0,100,0.00,,,3.73,Wunderground v.1.15,2013-08-10 03:20:00,
2013-08-09 23:30:00,70.2,70.2,29.83,WSW,237,0.0,8.0,100,0.00,,,3.73,Wunderground v.1.15,2013-08-10 03:30:00,
2013-08-09 23:35:00,70.3,70.3,29.83,WSW,237,0.0,8.0,100,0.00,,,3.73,Wunderground v.1.15,2013-08-10 03:35:00,
2013-08-09 23:40:00,70.4,70.4,29.83,WSW,237,0.0,8.0,100,0.00,,,3.73,Wunderground v.1.15,2013-08-10 03:40:00,
2013-08-09 23:50:00,70.5,70.5,29.83,WSW,237,0.0,8.0,100,0.00,,,3.73,Wunderground v.1.15,2013-08-10 03:50:00,
2013-08-09 23:55:00,70.5,70.5,29.83,WSW,237,0.0,8.0,100,0.00,,,3.73,Wunderground v.1.15,2013-08-10 03:55:00,